Weather History for Sacramento International, CA

Change the Weather History Date:

Saturday, August 24, 2013

  Actual Average Record
Temperature  
Mean Temperature 75 °F -  
Max Temperature 91 °F 91 °F 102 °F (2010)
Min Temperature 60 °F 57 °F 48 °F (2002)
Cooling Degree Days 10    
Growing Degree Days 25 (Base 50)    
Moisture  
Dew Point 55 °F    
Average Humidity 57    
Maximum Humidity 80    
Minimum Humidity 26    
Precipitation  
Precipitation 0.00 in - - ()
Sea Level Pressure  
Sea Level Pressure 29.79 in    
Wind  
Wind Speed 12 mph (SSE)    
Max Wind Speed 16 mph    
Max Gust Speed 16 mph    
Visibility 10 miles    
Events      
Averages and records for this station are not official NWS values.
T = Trace of Precipitation, MM = Missing Value Source: NWS Daily Summary

Daily Weather History Graph

Daily Weather History Graph

Search for Another Location

Airport:

Trip Planner

Search our weather history database for the weather conditions in past years. The results will help you decide how hot, cold, wet, or windy it might be!

Date:

Astronomy

Aug. 24, 2013 Rise Set
Actual Time 6:28 AM PDT 7:47 PM PDT
Civil Twilight 6:00 AM PDT 8:15 PM PDT
Nautical Twilight 5:27 AM PDT 8:48 PM PDT
Astronomical Twilight 4:52 AM PDT 9:23 PM PDT
Moon 9:48 PM PDT (8/24) 10:30 AM PDT (8/24)
Length of Visible Light 14h 14m
Length of Day
13h 19m
Waning Gibbous, 83% of the Moon is Illuminated
Aug 24
Waning Gibbous
Aug 28
Last Quarter
Sep 5
New
Sep 12
First Quarter
Sep 19
Full

Hourly Weather History & Observations

Time (PDT) Temp. Heat Index Dew Point Humidity Pressure Visibility Wind Dir Wind Speed Gust Speed Precip Events Conditions
12:53 AM 64.9 °F - 55.0 °F 70% 29.76 in 10.0 mi SSE 11.5 mph - N/A   Clear
1:53 AM 64.0 °F - 55.0 °F 73% 29.76 in 10.0 mi SSE 10.4 mph - N/A   Clear
2:53 AM 63.0 °F - 55.0 °F 75% 29.77 in 10.0 mi SSE 10.4 mph - N/A   Clear
3:53 AM 63.0 °F - 54.0 °F 72% 29.77 in 10.0 mi SSE 9.2 mph - N/A   Clear
4:53 AM 62.1 °F - 54.0 °F 75% 29.77 in 10.0 mi SSE 10.4 mph - N/A   Clear
5:53 AM 60.1 °F - 54.0 °F 80% 29.78 in 10.0 mi SSE 11.5 mph - N/A   Clear
6:53 AM 60.1 °F - 54.0 °F 80% 29.79 in 10.0 mi South 10.4 mph - N/A   Clear
7:53 AM 62.1 °F - 54.0 °F 75% 29.80 in 10.0 mi South 12.7 mph - N/A   Clear
8:53 AM 64.9 °F - 55.0 °F 70% 29.81 in 10.0 mi South 15.0 mph - N/A   Clear
9:53 AM 71.1 °F - 55.0 °F 57% 29.83 in 10.0 mi SSE 12.7 mph - N/A   Clear
10:53 AM 75.0 °F - 55.0 °F 50% 29.83 in 10.0 mi SE 10.4 mph - N/A   Clear
11:53 AM 79.0 °F - 54.0 °F 42% 29.83 in 10.0 mi South 10.4 mph - N/A   Clear
12:53 PM 82.9 °F 81.9 °F 54.0 °F 37% 29.82 in 10.0 mi South 10.4 mph - N/A   Partly Cloudy
1:53 PM 84.9 °F 83.2 °F 53.1 °F 33% 29.80 in 10.0 mi South 10.4 mph - N/A   Scattered Clouds
2:53 PM 88.0 °F - 50.0 °F 27% 29.79 in 10.0 mi South 11.5 mph 16.1 mph N/A   Scattered Clouds
3:53 PM 90.0 °F - 51.1 °F 26% 29.77 in 10.0 mi SSW 11.5 mph - N/A   Scattered Clouds
4:53 PM 89.1 °F 87.1 °F 55.0 °F 31% 29.76 in 10.0 mi South 16.1 mph - N/A   Mostly Cloudy
5:53 PM 86.0 °F 85.0 °F 57.9 °F 38% 29.76 in 10.0 mi South 12.7 mph - N/A   Mostly Cloudy
6:53 PM 81.0 °F 81.0 °F 57.0 °F 44% 29.75 in 10.0 mi South 16.1 mph - N/A   Mostly Cloudy
7:53 PM 75.9 °F - 57.0 °F 52% 29.77 in 10.0 mi South 13.8 mph - N/A   Mostly Cloudy
8:53 PM 72.0 °F - 57.0 °F 59% 29.79 in 10.0 mi South 12.7 mph - N/A   Mostly Cloudy
9:53 PM 70.0 °F - 57.0 °F 63% 29.81 in 10.0 mi SSE 12.7 mph - N/A   Partly Cloudy
10:53 PM 68.0 °F - 57.0 °F 68% 29.81 in 10.0 mi SE 11.5 mph - N/A   Partly Cloudy
11:53 PM 69.1 °F - 57.0 °F 65% 29.82 in 10.0 mi SSE 12.7 mph - N/A   Partly Cloudy